TimeEST,TemperatureF,Dew PointF,Humidity,Sea Level PressureIn,VisibilityMPH,Wind Direction,Wind SpeedMPH,Gust SpeedMPH,PrecipitationIn,Events,Conditions,WindDirDegrees,DateUTC
12:15 AM,19.4,5.0,54,30.10,10.0,WNW,8.1,17.3,N/A,,Clear,300,2013-01-03 05:15:00
12:35 AM,17.6,3.2,53,30.10,10.0,West,9.2,-,N/A,,Clear,280,2013-01-03 05:35:00
12:55 AM,17.6,1.4,49,30.11,10.0,West,5.8,-,N/A,,Clear,280,2013-01-03 05:55:00
1:15 AM,17.6,1.4,49,30.11,10.0,West,8.1,-,N/A,,Clear,280,2013-01-03 06:15:00
1:35 AM,15.8,1.4,53,30.12,10.0,WNW,10.4,16.1,N/A,,Clear,290,2013-01-03 06:35:00
1:55 AM,14.0,-0.4,53,30.13,10.0,WNW,9.2,17.3,N/A,,Clear,290,2013-01-03 06:55:00
2:15 AM,14.0,-0.4,53,30.14,10.0,WNW,9.2,-,N/A,,Clear,290,2013-01-03 07:15:00
2:35 AM,14.0,-0.4,53,30.13,10.0,WNW,6.9,-,N/A,,Clear,300,2013-01-03 07:35:00
2:55 AM,14.0,-0.4,53,30.13,10.0,WNW,8.1,-,N/A,,Clear,300,2013-01-03 07:55:00
3:15 AM,14.0,-0.4,53,30.13,10.0,West,6.9,-,N/A,,Clear,280,2013-01-03 08:15:00
3:35 AM,14.0,-0.4,53,30.12,10.0,WNW,6.9,-,N/A,,Clear,290,2013-01-03 08:35:00
3:55 AM,12.2,1.4,62,30.12,10.0,West,5.8,-,N/A,,Clear,280,2013-01-03 08:55:00
4:15 AM,12.2,-0.4,57,30.12,10.0,West,8.1,16.1,N/A,,Clear,280,2013-01-03 09:15:00
4:35 AM,12.2,-0.4,57,30.12,10.0,West,5.8,-,N/A,,Clear,280,2013-01-03 09:35:00
4:55 AM,12.2,-0.4,57,30.12,10.0,West,6.9,-,N/A,,Clear,270,2013-01-03 09:55:00
5:15 AM,10.4,-0.4,62,30.12,10.0,West,6.9,-,N/A,,Clear,260,2013-01-03 10:15:00
5:35 AM,10.4,-0.4,62,30.12,10.0,West,5.8,-,N/A,,Clear,280,2013-01-03 10:35:00
5:55 AM,10.4,-0.4,62,30.12,10.0,West,4.6,-,N/A,,Clear,280,2013-01-03 10:55:00
6:15 AM,10.4,-0.4,62,30.12,10.0,West,5.8,-,N/A,,Clear,260,2013-01-03 11:15:00
6:35 AM,10.4,-0.4,62,30.13,10.0,West,5.8,-,N/A,,Clear,260,2013-01-03 11:35:00
6:55 AM,10.4,-0.4,62,30.13,10.0,WSW,3.5,-,N/A,,Clear,240,2013-01-03 11:55:00
7:15 AM,8.6,-0.4,67,30.13,10.0,WSW,4.6,-,N/A,,Clear,250,2013-01-03 12:15:00
7:35 AM,8.6,-0.4,67,30.14,10.0,WSW,4.6,-,N/A,,Clear,240,2013-01-03 12:35:00
7:55 AM,10.4,-0.4,62,30.15,10.0,WSW,5.8,-,N/A,,Clear,250,2013-01-03 12:55:00
8:15 AM,10.4,-2.2,57,30.15,10.0,West,4.6,-,N/A,,Clear,260,2013-01-03 13:15:00
8:35 AM,12.2,-0.4,57,30.15,10.0,WSW,6.9,-,N/A,,Clear,250,2013-01-03 13:35:00
8:55 AM,12.2,-0.4,57,30.15,10.0,West,6.9,-,N/A,,Clear,260,2013-01-03 13:55:00
9:15 AM,14.0,-0.4,53,30.14,10.0,West,3.5,-,N/A,,Clear,270,2013-01-03 14:15:00
9:35 AM,14.0,-0.4,53,30.14,10.0,West,4.6,-,N/A,,Clear,270,2013-01-03 14:35:00
9:55 AM,17.6,-0.4,45,30.14,10.0,WSW,4.6,-,N/A,,Clear,240,2013-01-03 14:55:00
10:15 AM,17.6,-0.4,45,30.14,10.0,WNW,5.8,-,N/A,,Clear,290,2013-01-03 15:15:00
10:35 AM,19.4,-0.4,42,30.12,10.0,West,3.5,-,N/A,,Clear,270,2013-01-03 15:35:00
10:55 AM,19.4,-0.4,42,30.11,10.0,SW,8.1,-,N/A,,Clear,220,2013-01-03 15:55:00
11:15 AM,21.2,-0.4,39,30.10,10.0,WSW,5.8,-,N/A,,Clear,240,2013-01-03 16:15:00
11:35 AM,21.2,1.4,42,30.10,10.0,West,5.8,-,N/A,,Clear,270,2013-01-03 16:35:00
11:55 AM,23.0,1.4,39,30.09,10.0,West,6.9,-,N/A,,Clear,260,2013-01-03 16:55:00
12:15 PM,23.0,1.4,39,30.08,10.0,WSW,5.8,-,N/A,,Clear,250,2013-01-03 17:15:00
12:35 PM,23.0,1.4,39,30.07,10.0,West,5.8,-,N/A,,Clear,260,2013-01-03 17:35:00
12:55 PM,24.8,3.2,40,30.06,10.0,West,8.1,-,N/A,,Clear,260,2013-01-03 17:55:00
1:15 PM,26.6,1.4,34,30.05,10.0,WNW,6.9,-,N/A,,Clear,290,2013-01-03 18:15:00
1:35 PM,26.6,1.4,34,30.05,10.0,West,4.6,-,N/A,,Clear,270,2013-01-03 18:35:00
1:55 PM,26.6,1.4,34,30.04,10.0,West,6.9,-,N/A,,Clear,260,2013-01-03 18:55:00
2:15 PM,26.6,1.4,34,30.04,10.0,West,8.1,-,N/A,,Clear,280,2013-01-03 19:15:00
2:35 PM,28.4,1.4,31,30.04,10.0,West,6.9,-,N/A,,Clear,280,2013-01-03 19:35:00
2:55 PM,28.4,-0.4,29,30.05,10.0,WSW,5.8,-,N/A,,Clear,250,2013-01-03 19:55:00
3:15 PM,28.4,-0.4,29,30.05,10.0,West,9.2,-,N/A,,Clear,260,2013-01-03 20:15:00
3:35 PM,28.4,-0.4,29,30.04,10.0,WSW,5.8,-,N/A,,Clear,240,2013-01-03 20:35:00
3:55 PM,26.6,-0.4,31,30.04,10.0,West,3.5,-,N/A,,Clear,260,2013-01-03 20:55:00
4:15 PM,26.6,-0.4,31,30.04,10.0,WSW,3.5,-,N/A,,Clear,250,2013-01-03 21:15:00
4:35 PM,26.6,-0.4,31,30.04,10.0,WSW,8.1,-,N/A,,Clear,250,2013-01-03 21:35:00
4:55 PM,26.6,-0.4,31,30.04,10.0,West,6.9,-,N/A,,Clear,260,2013-01-03 21:55:00
5:15 PM,24.8,-0.4,34,30.05,10.0,WSW,3.5,-,N/A,,Clear,250,2013-01-03 22:15:00
5:35 PM,23.0,-0.4,36,30.05,10.0,WSW,3.5,-,N/A,,Clear,240,2013-01-03 22:35:00
6:15 PM,21.2,3.2,46,30.05,10.0,Calm,Calm,-,N/A,,Clear,0,2013-01-03 23:15:00
6:35 PM,21.2,3.2,46,30.06,10.0,WSW,3.5,-,N/A,,Clear,240,2013-01-03 23:35:00
6:55 PM,21.2,1.4,42,30.07,10.0,WSW,3.5,-,N/A,,Clear,250,2013-01-03 23:55:00
7:15 PM,19.4,5.0,54,30.06,9.0,SW,3.5,-,N/A,,Mostly Cloudy,220,2013-01-04 00:15:00
7:35 PM,21.2,3.2,46,30.07,10.0,SW,3.5,-,N/A,,Scattered Clouds,230,2013-01-04 00:35:00
7:55 PM,19.4,3.2,49,30.06,10.0,Calm,Calm,-,N/A,,Mostly Cloudy,0,2013-01-04 00:55:00
8:15 PM,21.2,5.0,50,30.06,10.0,Calm,Calm,-,N/A,,Overcast,0,2013-01-04 01:15:00
8:35 PM,21.2,5.0,50,30.07,10.0,Calm,Calm,-,N/A,,Scattered Clouds,0,2013-01-04 01:35:00
8:55 PM,21.2,5.0,50,30.06,10.0,Calm,Calm,-,N/A,,Partly Cloudy,0,2013-01-04 01:55:00
9:15 PM,21.2,8.6,58,30.07,10.0,WSW,4.6,-,N/A,,Mostly Cloudy,250,2013-01-04 02:15:00
9:35 PM,23.0,8.6,54,30.07,10.0,WSW,3.5,-,N/A,,Scattered Clouds,250,2013-01-04 02:35:00
9:55 PM,21.2,8.6,58,30.07,10.0,Calm,Calm,-,N/A,,Clear,0,2013-01-04 02:55:00
10:15 PM,21.2,8.6,58,30.06,10.0,Calm,Calm,-,N/A,,Mostly Cloudy,0,2013-01-04 03:15:00
10:35 PM,19.4,10.4,68,30.06,10.0,Calm,Calm,-,N/A,,Overcast,0,2013-01-04 03:35:00
10:55 PM,21.2,10.4,63,30.05,10.0,SW,3.5,-,N/A,,Scattered Clouds,220,2013-01-04 03:55:00
11:15 PM,21.2,10.4,63,30.04,10.0,SW,3.5,-,N/A,,Scattered Clouds,220,2013-01-04 04:15:00
11:35 PM,21.2,10.4,63,30.02,10.0,SW,3.5,-,N/A,,Scattered Clouds,220,2013-01-04 04:35:00
11:55 PM,21.2,12.2,68,30.01,10.0,SW,4.6,-,N/A,,Partly Cloudy,220,2013-01-04 04:55:00